Location: Newark
(44.3248°N, 23.7839°E)
Time: 05:35:28
(UTC+00:00)

FO-29 - Pass Details

Date: 30 April 2024
Orbit: 801 x 1320 km, 98.6° (Epoch: 28 May)

Event Time Altitude Azimuth Distance (km) Brightness Sun altitude
Rises 01:53:53 0° 5° (N) 4,252 13.5 -13.7°
Reaches altitude 10° 01:56:58 10° 355° (N) 3,319 12.7 -13.3°
Maximum altitude 02:03:13 28° 301° (WNW) 2,278 11.2 -12.4°
Enters shadow 02:08:43 13° 252° (WSW) 3,122 11.5 -11.6°
